Flag for Martinique Weather past 2 weeks in Fort-de-France, Martinique

Now
81 °F

Overcast.


Feels Like: 83 °F
Forecast: N/A
Wind: 20 mph from East

Location: Le Lamentin Airport

Current Time: Mar 2, 2015 at 5:12:20 PM

Latest Report: Mar 2, 2015 at 4:30 PM


Visibility: N/A

Pressure: 29.92 "Hg

Humidity: 62%

Dew point: 66 °F

Location of Fort-de-FranceLocation

Historic Weather in Fort-de-France — Graph

°F

Fort-de-France temperature yesterday

Maximum temperature yesterday: 84 °F (at 11:00 AM)
Minimum temperature yesterday: 75 °F (at 1:30 AM)
Average temperature yesterday: 79 °F

Past Weeks' High & Low Weather Summary

 TemperatureHumidityPressure
High86 °F (Feb 16, 11:30 AM)100% (Feb 16, 2:30 AM)30.09 "Hg (Feb 16, 2:30 AM)
Low70 °F (Feb 16, 1:30 AM)48% (Feb 28, 12:00 PM)29.89 "Hg (Feb 19, 4:00 PM)
Average78 °F73%30.00 "Hg
* Reported Feb 15 4:00 PM — Mar 2 4:00 PM, Fort-de-France, Weather by CustomWeather, © 2015

Note: Actual official high and low records may vary slightly from our data, if they occured in-between our weather recording intervals... More about our weather records

Advertising

Fort-de-France weather history for previous 24 hours

 ConditionsComfort  
Time TempWeatherWind HumidityBarometerVisibility
4:00 PM
Mon, Mar 2
81 °FPartly sunny.22 mph66%29.92 "HgN/A
3:30 PM81 °FBroken clouds.21 mph62%29.92 "HgN/A
3:00 PM79 °FBroken clouds.16 mph74%29.92 "HgN/A
2:30 PM77 °FBroken clouds.18 mph83%29.95 "HgN/A
2:00 PM77 °FLight rain. Partly sunny.16 mph79%29.95 "HgN/A
1:30 PM82 °FMostly cloudy.16 mph66%29.95 "HgN/A
1:00 PM82 °FBroken clouds.20 mph62%29.98 "Hg6 mi
12:30 PM82 °FPartly sunny.20 mph62%29.98 "Hg3 mi
12:00 PM82 °FPartly sunny.23 mph62%30.01 "Hg2 mi
11:30 AM82 °FBroken clouds.22 mph62%30.01 "Hg2 mi
11:00 AM77 °FLight rain. Fog.22 mph83%30.01 "Hg2 mi
10:30 AM81 °FPartly sunny.21 mph70%30.04 "HgN/A
10:00 AM79 °FOvercast.20 mph74%30.04 "HgN/A
9:30 AM82 °FPartly sunny.16 mph66%30.04 "HgN/A
9:00 AM82 °FPartly sunny.15 mph66%30.01 "HgN/A
8:30 AM81 °FMostly cloudy.12 mph70%30.01 "HgN/A
8:00 AM79 °FMostly cloudy.9 mph79%30.01 "HgN/A
7:30 AM75 °FPartly sunny.14 mph83%30.01 "HgN/A
7:00 AM77 °FPartly sunny.9 mph79%30.01 "HgN/A
6:30 AM75 °FPartly sunny.10 mph78%29.98 "HgN/A
6:00 AM77 °FPassing clouds.12 mph74%29.98 "HgN/A
5:30 AM75 °FMild.10 mph78%29.98 "HgN/A
5:00 AM75 °FClear.8 mph74%29.95 "HgN/A
4:30 AM75 °FPartly cloudy.14 mph78%29.95 "HgN/A
4:00 AM77 °FPassing clouds.13 mph74%29.95 "HgN/A
3:30 AM75 °FPassing clouds.12 mph78%29.95 "HgN/A
3:00 AM77 °FPartly cloudy.10 mph74%29.95 "HgN/A
2:30 AM77 °FPartly cloudy.12 mph74%29.98 "HgN/A
2:00 AM77 °FPassing clouds.13 mph74%29.98 "HgN/A
1:30 AM77 °FPassing clouds.8 mph74%29.98 "HgN/A
1:00 AM77 °FPartly cloudy.10 mph74%30.01 "HgN/A
12:30 AM77 °FPassing clouds.13 mph74%30.01 "HgN/A
12:00 AM77 °FPassing clouds.15 mph74%30.01 "HgN/A
11:00 PM
Sun, Mar 1
77 °FPartly cloudy.13 mph74%30.04 "HgN/A
10:30 PM77 °FPassing clouds.12 mph74%30.04 "HgN/A
10:00 PM77 °FMostly cloudy.10 mph74%30.04 "HgN/A
9:30 PM77 °FPassing clouds.13 mph74%30.04 "HgN/A
9:00 PM77 °FPassing clouds.9 mph74%30.04 "HgN/A
8:30 PM77 °FPassing clouds.13 mph69%30.04 "HgN/A
8:00 PM77 °FPassing clouds.12 mph74%30.04 "HgN/A
7:30 PM77 °FPartly cloudy.10 mph74%30.01 "HgN/A
7:00 PM77 °FPartly cloudy.10 mph74%30.01 "HgN/A
6:30 PM77 °FPassing clouds.12 mph69%30.01 "HgN/A
6:00 PM77 °FBroken clouds.8 mph79%29.98 "HgN/A
5:30 PM79 °FBroken clouds.13 mph70%29.98 "HgN/A
5:00 PM81 °FPartly sunny.13 mph66%29.98 "HgN/A
Weather by CustomWeather, © 2015

See weather overviewHow to use our weather pages